This is the latest recevied weather packets stored in our database for station/object DO1BDB-12. If no packets are shown the sender has not sent any weather packets the latest 10 day(s).
| Time | Temp. | Humidity | Pressure | Rain* | Wind** | Luminosity | Snow |
|---|---|---|---|---|---|---|---|
| 1787814531 | 23.33° C | 49% | 102.1 hPa | - | - | - | - |
| 1787814465 | 23.33° C | 50% | 102.1 hPa | - | - | - | - |
| 1787814399 | 23.33° C | 48% | 102.1 hPa | - | - | - | - |
| 1787814333 | 24.44° C | 48% | 102.1 hPa | - | - | - | - |
| 1787814267 | 25° C | 46% | 102.1 hPa | - | - | - | - |
| 1787814201 | 24.44° C | 50% | 102.1 hPa | - | - | - | - |
| 1787814136 | 25.56° C | 45% | 102.1 hPa | - | - | - | - |
| 1787814070 | 23.89° C | 50% | 102.1 hPa | - | - | - | - |
| 1787814009 | 23.33° C | 49% | 102.1 hPa | - | - | - | - |
| 1787813938 | 21.67° C | 53% | 102.1 hPa | - | - | - | - |
| 1787813872 | 24.44° C | 47% | 102.1 hPa | - | - | - | - |
| 1787813806 | 25° C | 47% | 102.1 hPa | - | - | - | - |
| 1787813740 | 23.33° C | 49% | 102.1 hPa | - | - | - | - |
| 1787813675 | 23.89° C | 50% | 102.1 hPa | - | - | - | - |
| 1787813609 | 22.78° C | 53% | 102.1 hPa | - | - | - | - |
| 1787813543 | 22.78° C | 52% | 102.1 hPa | - | - | - | - |
| 1787813477 | 23.33° C | 52% | 102.1 hPa | - | - | - | - |
| 1787813411 | 21.11° C | 55% | 102.1 hPa | - | - | - | - |
| 1787813345 | 22.22° C | 54% | 102.1 hPa | - | - | - | - |
| 1787813280 | 22.22° C | 54% | 102.1 hPa | - | - | - | - |
| 1787813214 | 20.56° C | 58% | 102.1 hPa | - | - | - | - |
| 1787813148 | 20.56° C | 56% | 102.1 hPa | - | - | - | - |
| 1787813082 | 23.89° C | 49% | 102.1 hPa | - | - | - | - |
| 1787813016 | 22.78° C | 53% | 102.1 hPa | - | - | - | - |
| 1787812950 | 22.22° C | 55% | 102.1 hPa | - | - | - | - |
* Rain since midnight (hover to see other rain measurements)
** Current wind speed in m/s (hover to see current wind gust speed)